[keps] orb09281.amsat
Ray Hoad
r.hoad at att.net
Thu Oct 8 19:45:09 PDT 2009
SB KEPS @ AMSAT $ORB09281.O
Orbital Elements 09281.OSCAR
HR AMSAT ORBITAL ELEMENTS FOR OSCAR SATELLITES
FROM WA5QGD FORT WORTH,TX October 8, 2009
Send Subscribe/unsubscribe to KEPS at
http://www.amsat.org/mailman/listinfo/keps
BID: ORB09281.O
TO ALL RADIO AMATEURS BT
Satellite: AO-07
Catalog number: 07530
Epoch time: 09281.65324924
Element set: 599
Inclination: 101.4213 deg
RA of node: 302.1422 deg
Eccentricity: 0.0012073
Arg of perigee: 047.0148 deg
Mean anomaly: 313.1937 deg
Mean motion: 12.53576741 rev/day
Decay rate: -2.7e-07 rev/day^2
Epoch rev: 59693
Checksum: 284
Satellite: FO-29
Catalog number: 24278
Epoch time: 09280.78069744
Element set: 0161
Inclination: 098.5343 deg
RA of node: 139.5895 deg
Eccentricity: 0.0351283
Arg of perigee: 058.6276 deg
Mean anomaly: 304.8732 deg
Mean motion: 13.52946268 rev/day
Decay rate: 1.09e-06 rev/day^2
Epoch rev: 64897
Checksum: 361
Satellite: SO-33
Catalog number: 25509
Epoch time: 09281.56655611
Element set: 559
Inclination: 031.4339 deg
RA of node: 131.3826 deg
Eccentricity: 0.0354868
Arg of perigee: 249.8241 deg
Mean anomaly: 106.3935 deg
Mean motion: 14.28268026 rev/day
Decay rate: -5.8e-07 rev/day^2
Epoch rev: 57205
Checksum: 322
Satellite: RS-22
Catalog number: 27939
Epoch time: 09281.50102925
Element set: 908
Inclination: 097.9240 deg
RA of node: 152.1351 deg
Eccentricity: 0.0014229
Arg of perigee: 131.6051 deg
Mean anomaly: 228.6397 deg
Mean motion: 14.63345719 rev/day
Decay rate: 9.6e-07 rev/day^2
Epoch rev: 32214
Checksum: 297
Satellite: VO-52
Catalog number: 28650
Epoch time: 09281.84679507
Element set: 337
Inclination: 097.7293 deg
RA of node: 339.5935 deg
Eccentricity: 0.0027417
Arg of perigee: 021.0026 deg
Mean anomaly: 339.2312 deg
Mean motion: 14.81624974 rev/day
Decay rate: -1.58e-06 rev/day^2
Epoch rev: 23947
Checksum: 332
/EX
SB KEPS @ AMSAT $ORB09281.D
Orbital Elements 09281.MICROS
HR AMSAT ORBITAL ELEMENTS FOR THE MICROSATS
FROM WA5QGD FORT WORTH,TX October 8, 2009
Send Subscribe/unsubscribe to KEPS at
http://www.amsat.org/mailman/listinfo/keps
BID: ORB09281.D
TO ALL RADIO AMATEURS BT
Satellite: AO-16
Catalog number: 20439
Epoch time: 09280.50273428
Element set: 720
Inclination: 098.2936 deg
RA of node: 243.8764 deg
Eccentricity: 0.0010545
Arg of perigee: 192.6028 deg
Mean anomaly: 167.4885 deg
Mean motion: 14.31835169 rev/day
Decay rate: 1.5e-07 rev/day^2
Epoch rev: 2922
Checksum: 310
Satellite: LO-19
Catalog number: 20442
Epoch time: 09281.44966555
Element set: 634
Inclination: 098.2572 deg
RA of node: 251.6053 deg
Eccentricity: 0.0011911
Arg of perigee: 185.4613 deg
Mean anomaly: 174.6489 deg
Mean motion: 14.32069548 rev/day
Decay rate: 8.0e-08 rev/day^2
Epoch rev: 2952
Checksum: 314
Satellite: AO-27
Catalog number: 22825
Epoch time: 09280.50498346
Element set: 0359
Inclination: 098.4497 deg
RA of node: 230.4578 deg
Eccentricity: 0.0007660
Arg of perigee: 296.8589 deg
Mean anomaly: 063.1793 deg
Mean motion: 14.29274332 rev/day
Decay rate: -7.2e-07 rev/day^2
Epoch rev: 83595
Checksum: 356
Satellite: IO-26
Catalog number: 22826
Epoch time: 09281.52527503
Element set: 88
Inclination: 098.4429 deg
RA of node: 232.1486 deg
Eccentricity: 0.0008156
Arg of perigee: 289.1505 deg
Mean anomaly: 070.8794 deg
Mean motion: 14.29527756 rev/day
Decay rate: -8.0e-08 rev/day^2
Epoch rev: 83620
Checksum: 328
Satellite: GO-32
Catalog number: 25397
Epoch time: 09281.75778388
Element set: 9
Inclination: 098.3225 deg
RA of node: 297.9962 deg
Eccentricity: 0.0000303
Arg of perigee: 305.0183 deg
Mean anomaly: 055.0968 deg
Mean motion: 14.23163999 rev/day
Decay rate: -1.25e-06 rev/day^2
Epoch rev: 58428
Checksum: 338
Satellite: NO-44
Catalog number: 26931
Epoch time: 09280.92365407
Element set: 0286
Inclination: 067.0505 deg
RA of node: 133.9026 deg
Eccentricity: 0.0006727
Arg of perigee: 273.7557 deg
Mean anomaly: 086.2758 deg
Mean motion: 14.29567935 rev/day
Decay rate: -1.94e-06 rev/day^2
Epoch rev: 41869
Checksum: 345
Satellite: SO-50
Catalog number: 27607
Epoch time: 09281.82328147
Element set: 3
Inclination: 064.5591 deg
RA of node: 039.9603 deg
Eccentricity: 0.0053604
Arg of perigee: 176.8580 deg
Mean anomaly: 183.2875 deg
Mean motion: 14.71463663 rev/day
Decay rate: -7.7e-07 rev/day^2
Epoch rev: 36539
Checksum: 325
Satellite: CO-55
Catalog number: 27844
Epoch time: 09280.53928147
Element set: 683
Inclination: 098.7149 deg
RA of node: 288.1302 deg
Eccentricity: 0.0009641
Arg of perigee: 175.3150 deg
Mean anomaly: 184.8117 deg
Mean motion: 14.20659345 rev/day
Decay rate: 5.5e-07 rev/day^2
Epoch rev: 32521
Checksum: 317
Satellite: CO-57
Catalog number: 27848
Epoch time: 09280.53257089
Element set: 0635
Inclination: 098.7173 deg
RA of node: 287.1870 deg
Eccentricity: 0.0009442
Arg of perigee: 179.9016 deg
Mean anomaly: 180.2161 deg
Mean motion: 14.20458734 rev/day
Decay rate: 4.1e-07 rev/day^2
Epoch rev: 32517
Checksum: 324
Satellite: AO-51
Catalog number: 28375
Epoch time: 09281.59093878
Element set: 504
Inclination: 098.0546 deg
RA of node: 284.6021 deg
Eccentricity: 0.0083946
Arg of perigee: 140.2119 deg
Mean anomaly: 220.5267 deg
Mean motion: 14.40654221 rev/day
Decay rate: 8.0e-08 rev/day^2
Epoch rev: 27728
Checksum: 311
Satellite: CO-56
Catalog number: 28941
Epoch time: 09281.53967874
Element set: 507
Inclination: 098.1262 deg
RA of node: 118.8892 deg
Eccentricity: 0.0038214
Arg of perigee: 054.9304 deg
Mean anomaly: 305.5540 deg
Mean motion: 16.08519477 rev/day
Decay rate: 3.13380e-03 rev/day^2
Epoch rev: 20529
Checksum: 337
Satellite: GENESAT1
Catalog number: 29655
Epoch time: 09281.89100695
Element set: 827
Inclination: 040.0231 deg
RA of node: 189.6561 deg
Eccentricity: 0.0005361
Arg of perigee: 275.6780 deg
Mean anomaly: 084.3402 deg
Mean motion: 15.68128361 rev/day
Decay rate: 1.5014e-04 rev/day^2
Epoch rev: 16031
Checksum: 290
Satellite: CP3
Catalog number: 31129
Epoch time: 09281.65704995
Element set: 245
Inclination: 097.9759 deg
RA of node: 329.2286 deg
Eccentricity: 0.0101610
Arg of perigee: 294.1148 deg
Mean anomaly: 064.9444 deg
Mean motion: 14.52167747 rev/day
Decay rate: 1.52e-06 rev/day^2
Epoch rev: 13135
Checksum: 316
Satellite: CO-65
Catalog number: 32785
Epoch time: 09281.72724261
Element set: 492
Inclination: 097.9336 deg
RA of node: 344.6825 deg
Eccentricity: 0.0015800
Arg of perigee: 025.9497 deg
Mean anomaly: 334.2494 deg
Mean motion: 14.81524469 rev/day
Decay rate: 6.3e-07 rev/day^2
Epoch rev: 7825
Checksum: 336
Satellite: KKS-1
Catalog number: 33493
Epoch time: 09281.76210036
Element set: 826
Inclination: 098.0665 deg
RA of node: 034.5269 deg
Eccentricity: 0.0019072
Arg of perigee: 232.2138 deg
Mean anomaly: 127.7359 deg
Mean motion: 14.80742457 rev/day
Decay rate: 3.19e-06 rev/day^2
Epoch rev: 3827
Checksum: 306
Satellite: SOHLA-1
Catalog number: 33496
Epoch time: 09281.89923816
Element set: 792
Inclination: 098.0456 deg
RA of node: 029.4798 deg
Eccentricity: 0.0005441
Arg of perigee: 287.0214 deg
Mean anomaly: 073.0385 deg
Mean motion: 14.69449172 rev/day
Decay rate: 3.1e-07 rev/day^2
Epoch rev: 3797
Checksum: 333
/EX
SB KEPS @ AMSAT $ORB09281.W
Orbital Elements 09281.WEATHER
HR AMSAT ORBITAL ELEMENTS FOR WEATHER SATELLITES
FROM WA5QGD FORT WORTH,TX October 8, 2009
Send Subscribe/unsubscribe to KEPS at
http://www.amsat.org/mailman/listinfo/keps
BID: ORB09281.W
TO ALL RADIO AMATEURS BT
Satellite: NOAA-10
Catalog number: 16969
Epoch time: 09280.59374130
Element set: 0788
Inclination: 098.6844 deg
RA of node: 306.5948 deg
Eccentricity: 0.0011637
Arg of perigee: 227.1920 deg
Mean anomaly: 132.8280 deg
Mean motion: 14.27395923 rev/day
Decay rate: 3.4e-07 rev/day^2
Epoch rev: 19954
Checksum: 336
Satellite: NOAA-11
Catalog number: 19531
Epoch time: 09280.64567305
Element set: 0806
Inclination: 098.7824 deg
RA of node: 008.8471 deg
Eccentricity: 0.0011916
Arg of perigee: 145.1500 deg
Mean anomaly: 215.0457 deg
Mean motion: 14.14905442 rev/day
Decay rate: 2.75e-06 rev/day^2
Epoch rev: 08542
Checksum: 291
Satellite: NOAA-12
Catalog number: 21263
Epoch time: 09280.96663223
Element set: 0311
Inclination: 098.7751 deg
RA of node: 289.0936 deg
Eccentricity: 0.0012152
Arg of perigee: 174.7184 deg
Mean anomaly: 185.4126 deg
Mean motion: 14.25596100 rev/day
Decay rate: 3.5e-07 rev/day^2
Epoch rev: 95646
Checksum: 304
Satellite: MET-3/5
Catalog number: 21655
Epoch time: 09280.96327109
Element set: 0798
Inclination: 082.5536 deg
RA of node: 126.8461 deg
Eccentricity: 0.0012496
Arg of perigee: 258.8952 deg
Mean anomaly: 101.0766 deg
Mean motion: 13.17021101 rev/day
Decay rate: 5.1e-07 rev/day^2
Epoch rev: 87247
Checksum: 308
Satellite: MET-2/21
Catalog number: 22782
Epoch time: 09281.56749737
Element set: 585
Inclination: 082.5433 deg
RA of node: 092.0721 deg
Eccentricity: 0.0023230
Arg of perigee: 031.9247 deg
Mean anomaly: 328.3320 deg
Mean motion: 13.83638303 rev/day
Decay rate: -7.2e-07 rev/day^2
Epoch rev: 81328
Checksum: 296
Satellite: OKEAN-4
Catalog number: 23317
Epoch time: 09280.66558007
Element set: 0040
Inclination: 082.5399 deg
RA of node: 229.5100 deg
Eccentricity: 0.0022512
Arg of perigee: 358.8352 deg
Mean anomaly: 001.2806 deg
Mean motion: 14.82725673 rev/day
Decay rate: 2.03e-06 rev/day^2
Epoch rev: 80903
Checksum: 278
Satellite: NOAA-14
Catalog number: 23455
Epoch time: 09280.91112099
Element set: 0785
Inclination: 098.9016 deg
RA of node: 358.1493 deg
Eccentricity: 0.0008823
Arg of perigee: 227.1449 deg
Mean anomaly: 132.8967 deg
Mean motion: 14.13770927 rev/day
Decay rate: 2.15e-06 rev/day^2
Epoch rev: 76185
Checksum: 333
Satellite: NOAA-15
Catalog number: 25338
Epoch time: 09280.62566787
Element set: 0111
Inclination: 098.5959 deg
RA of node: 267.4300 deg
Eccentricity: 0.0011738
Arg of perigee: 090.5168 deg
Mean anomaly: 269.7336 deg
Mean motion: 14.24786983 rev/day
Decay rate: 4.1e-07 rev/day^2
Epoch rev: 59278
Checksum: 347
